Location: Johnson City
(36.3130°N, 82.3540°W)
Time: 10:59:18
(UTC-04:00)

Tiangong - Visible Passes

Search period start: 30 September 2022 00:00
Search period end: 10 October 2022 00:00
Orbit: 381 x 385 km, 41.5° (Epoch: 30 September)

Date Brightness Start Highest point End Pass type
(mag) Time Alt. Az. Time Alt. Az. Time Alt. Az.
30 Sep -0.9 06:00:48 28° S 06:00:48 28° S 06:03:02 10° SSE visible
05 Oct 0.0 20:42:36 10° SSW 20:43:46 18° SSW 20:43:46 18° SSW visible
06 Oct -0.1 19:43:24 10° S 19:45:20 15° SE 19:46:54 12° ESE visible
06 Oct 1.0 21:18:40 10° WSW 21:19:06 13° WSW 21:19:06 13° WSW visible
07 Oct -2.0 20:18:34 10° SW 20:21:38 52° SSE 20:22:05 47° ESE visible
08 Oct -0.4 20:55:05 10° W 20:57:07 34° WNW 20:57:07 34° WNW visible
09 Oct -2.2 19:54:44 10° WSW 19:57:53 87° NNW 19:59:51 21° ENE visible
